Time,TemperatureF,DewpointF,PressureIn,WindDirection,WindDirectionDegrees,WindSpeedMPH,WindSpeedGustMPH,Humidity,HourlyPrecipIn,Conditions,Clouds,dailyrainin,SoftwareType,DateUTC
2013-07-22 00:07:00,71.2,68.4,29.83,ENE,67,0.0,-999.0,91,-99.99,,,0.00,Acu-Link.com,2013-07-22 04:07:00,
2013-07-22 00:22:00,70.7,68.3,29.85,SSW,202,0.0,-999.0,92,-99.99,,,0.00,Acu-Link.com,2013-07-22 04:22:00,
2013-07-22 00:37:00,70.5,68.1,29.84,NNE,22,0.0,-999.0,92,-99.99,,,0.00,Acu-Link.com,2013-07-22 04:37:00,
2013-07-22 00:53:00,70.5,67.7,29.84,ESE,112,0.0,-999.0,91,-99.99,,,0.00,Acu-Link.com,2013-07-22 04:53:00,
2013-07-22 01:08:00,70.7,67.9,29.84,NNW,337,0.0,-999.0,91,-99.99,,,0.00,Acu-Link.com,2013-07-22 05:08:00,
2013-07-22 01:23:00,70.7,67.9,29.84,ENE,67,1.1,-999.0,91,-99.99,,,0.00,Acu-Link.com,2013-07-22 05:23:00,
2013-07-22 01:39:00,70.7,67.9,29.84,ENE,67,0.0,-999.0,91,-99.99,,,0.00,Acu-Link.com,2013-07-22 05:39:00,
2013-07-22 01:54:00,70.7,67.9,29.83,SSE,157,0.0,-999.0,91,-99.99,,,0.00,Acu-Link.com,2013-07-22 05:54:00,
2013-07-22 02:09:00,71.1,68.0,29.82,ENE,67,0.0,-999.0,90,-99.99,,,0.00,Acu-Link.com,2013-07-22 06:09:00,
2013-07-22 02:24:00,71.1,68.0,29.83,ESE,112,1.1,-999.0,90,-99.99,,,0.00,Acu-Link.com,2013-07-22 06:24:00,
2013-07-22 02:40:00,71.1,68.0,29.82,East,90,0.0,-999.0,90,-99.99,,,0.00,Acu-Link.com,2013-07-22 06:40:00,
2013-07-22 02:55:00,70.7,67.9,29.82,SSW,202,0.0,-999.0,91,-99.99,,,0.00,Acu-Link.com,2013-07-22 06:55:00,
2013-07-22 03:10:00,70.0,67.6,29.81,SSW,202,0.0,-999.0,92,-99.99,,,0.00,Acu-Link.com,2013-07-22 07:10:00,
2013-07-22 03:26:00,69.4,67.3,29.82,ENE,67,1.1,-999.0,93,-99.99,,,0.00,Acu-Link.com,2013-07-22 07:26:00,
2013-07-22 03:41:00,69.4,67.3,29.83,ENE,67,2.2,-999.0,93,-99.99,,,0.00,Acu-Link.com,2013-07-22 07:41:00,
2013-07-22 03:56:00,69.4,67.3,29.82,NE,45,0.0,-999.0,93,-99.99,,,0.00,Acu-Link.com,2013-07-22 07:56:00,
2013-07-22 04:13:00,69.3,67.2,29.83,NE,45,0.0,-999.0,93,-99.99,,,0.00,Acu-Link.com,2013-07-22 08:13:00,
2013-07-22 04:28:00,68.9,66.8,29.83,NNE,22,0.0,-999.0,93,-99.99,,,0.00,Acu-Link.com,2013-07-22 08:28:00,
2013-07-22 04:43:00,68.7,66.9,29.83,East,90,0.0,-999.0,94,-99.99,,,0.00,Acu-Link.com,2013-07-22 08:43:00,
2013-07-22 04:59:00,68.4,66.6,29.83,East,90,0.0,-999.0,94,-99.99,,,0.00,Acu-Link.com,2013-07-22 08:59:00,
2013-07-22 05:14:00,67.8,66.3,29.83,ESE,112,1.7,-999.0,95,-99.99,,,0.00,Acu-Link.com,2013-07-22 09:14:00,
2013-07-22 05:29:00,67.8,66.3,29.83,NE,45,0.0,-999.0,95,-99.99,,,0.00,Acu-Link.com,2013-07-22 09:29:00,
2013-07-22 05:44:00,67.3,65.8,29.83,NE,45,2.2,-999.0,95,-99.99,,,0.00,Acu-Link.com,2013-07-22 09:44:00,
2013-07-22 05:59:00,66.9,65.4,29.84,East,90,1.1,-999.0,95,-99.99,,,0.00,Acu-Link.com,2013-07-22 09:59:00,
2013-07-22 06:15:00,66.7,65.2,29.83,East,90,0.0,-999.0,95,-99.99,,,0.00,Acu-Link.com,2013-07-22 10:15:00,
2013-07-22 06:30:00,67.3,65.8,29.85,ENE,67,0.0,-999.0,95,-99.99,,,0.00,Acu-Link.com,2013-07-22 10:30:00,
2013-07-22 06:45:00,68.0,66.2,29.84,ENE,67,1.1,-999.0,94,-99.99,,,0.00,Acu-Link.com,2013-07-22 10:45:00,
2013-07-22 07:00:00,68.9,66.8,29.85,NNE,22,0.0,-999.0,93,-99.99,,,0.00,Acu-Link.com,2013-07-22 11:00:00,
2013-07-22 07:15:00,69.6,67.2,29.85,ESE,112,0.0,-999.0,92,-99.99,,,0.00,Acu-Link.com,2013-07-22 11:15:00,
2013-07-22 07:31:00,70.0,66.9,29.86,East,90,1.1,-999.0,90,-99.99,,,0.00,Acu-Link.com,2013-07-22 11:31:00,
2013-07-22 07:46:00,72.9,67.8,29.84,East,90,1.7,-999.0,84,-99.99,,,0.00,Acu-Link.com,2013-07-22 11:46:00,
2013-07-22 08:01:00,74.7,68.5,29.84,NE,45,1.7,-999.0,81,-99.99,,,0.00,Acu-Link.com,2013-07-22 12:01:00,
2013-07-22 08:16:00,77.2,68.6,29.85,East,90,2.2,-999.0,75,-99.99,,,0.00,Acu-Link.com,2013-07-22 12:16:00,
2013-07-22 08:32:00,79.0,68.4,29.84,ESE,112,2.7,-999.0,70,-99.99,,,0.00,Acu-Link.com,2013-07-22 12:32:00,
2013-07-22 08:47:00,80.6,69.0,29.84,NNW,337,2.2,-999.0,68,-99.99,,,0.00,Acu-Link.com,2013-07-22 12:47:00,
2013-07-22 09:02:00,75.9,68.5,29.85,North,0,1.7,-999.0,78,-99.99,,,0.00,Acu-Link.com,2013-07-22 13:02:00,
2013-07-22 09:17:00,77.7,69.1,29.84,SW,225,2.2,-999.0,75,-99.99,,,0.00,Acu-Link.com,2013-07-22 13:17:00,
2013-07-22 09:33:00,78.1,69.9,29.83,SSW,202,0.0,-999.0,76,-99.99,,,0.00,Acu-Link.com,2013-07-22 13:33:00,
2013-07-22 09:48:00,79.2,70.6,29.83,West,270,1.1,-999.0,75,-99.99,,,0.00,Acu-Link.com,2013-07-22 13:48:00,
2013-07-22 10:03:00,79.3,70.7,29.83,NNE,22,2.7,-999.0,75,-99.99,,,0.00,Acu-Link.com,2013-07-22 14:03:00,
2013-07-22 10:19:00,80.2,71.1,29.83,West,270,1.1,-999.0,74,-99.99,,,0.00,Acu-Link.com,2013-07-22 14:19:00,
2013-07-22 10:34:00,81.7,71.4,29.82,WNW,292,2.7,-999.0,71,-99.99,,,0.00,Acu-Link.com,2013-07-22 14:34:00,
2013-07-22 10:49:00,81.0,71.9,29.82,ESE,112,2.7,-999.0,74,-99.99,,,0.00,Acu-Link.com,2013-07-22 14:49:00,
2013-07-22 11:05:00,81.0,72.7,29.81,ESE,112,2.2,-999.0,76,-99.99,,,0.00,Acu-Link.com,2013-07-22 15:05:00,
2013-07-22 11:20:00,82.2,72.3,29.83,SW,225,2.7,-999.0,72,-99.99,,,0.00,Acu-Link.com,2013-07-22 15:20:00,
2013-07-22 11:35:00,82.6,73.0,29.81,West,270,0.0,-999.0,73,-99.99,,,0.00,Acu-Link.com,2013-07-22 15:35:00,
2013-07-22 11:51:00,84.0,72.7,29.80,SW,225,1.7,-999.0,69,-99.99,,,0.00,Acu-Link.com,2013-07-22 15:51:00,
2013-07-22 12:06:00,84.6,72.8,29.80,NE,45,1.1,-999.0,68,-99.99,,,0.00,Acu-Link.com,2013-07-22 16:06:00,
2013-07-22 12:21:00,84.4,72.7,29.80,East,90,1.7,-999.0,68,-99.99,,,0.00,Acu-Link.com,2013-07-22 16:21:00,
2013-07-22 12:37:00,86.5,72.8,29.80,WNW,292,1.1,-999.0,64,-99.99,,,0.00,Acu-Link.com,2013-07-22 16:37:00,
2013-07-22 12:52:00,85.3,71.7,29.80,ESE,112,2.7,-999.0,64,-99.99,,,0.00,Acu-Link.com,2013-07-22 16:52:00,
2013-07-22 13:07:00,86.0,71.9,29.78,NE,45,1.7,-999.0,63,-99.99,,,0.00,Acu-Link.com,2013-07-22 17:07:00,
2013-07-22 13:23:00,86.2,71.6,29.77,NNE,22,4.2,-999.0,62,-99.99,,,0.00,Acu-Link.com,2013-07-22 17:23:00,
2013-07-22 13:38:00,87.1,72.0,29.76,NE,45,2.7,-999.0,61,-99.99,,,0.00,Acu-Link.com,2013-07-22 17:38:00,
2013-07-22 13:53:00,87.6,72.5,29.75,West,270,0.0,-999.0,61,-99.99,,,0.00,Acu-Link.com,2013-07-22 17:53:00,
2013-07-22 14:09:00,85.6,71.5,29.75,East,90,2.2,-999.0,63,-99.99,,,0.00,Acu-Link.com,2013-07-22 18:09:00,
2013-07-22 14:24:00,89.1,72.4,29.74,South,180,2.7,-999.0,58,-99.99,,,0.00,Acu-Link.com,2013-07-22 18:24:00,
2013-07-22 14:39:00,75.7,68.0,29.75,WNW,292,1.7,-999.0,77,-99.99,,,0.02,Acu-Link.com,2013-07-22 18:39:00,
2013-07-22 14:54:00,75.4,70.6,29.75,ENE,67,3.2,-999.0,85,-99.99,,,0.03,Acu-Link.com,2013-07-22 18:54:00,
2013-07-22 15:25:00,77.0,71.8,29.74,SE,135,1.7,-999.0,84,-99.99,,,0.03,Acu-Link.com,2013-07-22 19:25:00,
2013-07-22 15:40:00,78.6,72.6,29.74,East,90,5.3,-999.0,82,-99.99,,,0.03,Acu-Link.com,2013-07-22 19:40:00,
2013-07-22 15:55:00,79.7,72.6,29.74,NE,45,1.7,-999.0,79,-99.99,,,0.03,Acu-Link.com,2013-07-22 19:55:00,
2013-07-22 16:10:00,79.9,73.2,29.72,South,180,1.1,-999.0,80,-99.99,,,0.03,Acu-Link.com,2013-07-22 20:10:00,
2013-07-22 16:25:00,80.4,74.0,29.72,East,90,0.0,-999.0,81,-99.99,,,0.03,Acu-Link.com,2013-07-22 20:25:00,
2013-07-22 16:40:00,78.8,72.8,29.72,NNE,22,1.7,-999.0,82,-99.99,,,0.03,Acu-Link.com,2013-07-22 20:40:00,
2013-07-22 16:55:00,80.2,72.7,29.70,North,0,1.7,-999.0,78,-99.99,,,0.03,Acu-Link.com,2013-07-22 20:55:00,
2013-07-22 17:11:00,80.6,71.9,29.71,NNE,22,2.7,-999.0,75,-99.99,,,0.03,Acu-Link.com,2013-07-22 21:11:00,
2013-07-22 17:26:00,80.1,71.8,29.72,West,270,1.1,-999.0,76,-99.99,,,0.03,Acu-Link.com,2013-07-22 21:26:00,
2013-07-22 17:41:00,79.2,72.1,29.71,ESE,112,0.0,-999.0,79,-99.99,,,0.03,Acu-Link.com,2013-07-22 21:41:00,
2013-07-22 17:56:00,77.9,70.8,29.70,NNW,337,1.1,-999.0,79,-99.99,,,0.03,Acu-Link.com,2013-07-22 21:56:00,
2013-07-22 18:12:00,74.7,70.6,29.70,WNW,292,1.7,-999.0,87,-99.99,,,0.05,Acu-Link.com,2013-07-22 22:12:00,
2013-07-22 18:27:00,74.5,71.4,29.71,NNW,337,0.0,-999.0,90,-99.99,,,0.06,Acu-Link.com,2013-07-22 22:27:00,
2013-07-22 18:42:00,73.9,71.7,29.70,SE,135,1.7,-999.0,93,-99.99,,,0.07,Acu-Link.com,2013-07-22 22:42:00,
2013-07-22 18:57:00,73.8,71.6,29.70,SSE,157,0.0,-999.0,93,-99.99,,,0.07,Acu-Link.com,2013-07-22 22:57:00,
2013-07-22 19:12:00,73.2,71.4,29.68,North,0,0.0,-999.0,94,-99.99,,,0.07,Acu-Link.com,2013-07-22 23:12:00,
2013-07-22 19:27:00,73.0,71.5,29.70,WSW,247,0.0,-999.0,95,-99.99,,,0.08,Acu-Link.com,2013-07-22 23:27:00,
2013-07-22 19:43:00,72.9,71.4,29.69,SW,225,0.0,-999.0,95,-99.99,,,0.08,Acu-Link.com,2013-07-22 23:43:00,
2013-07-22 19:58:00,72.7,70.9,29.70,WNW,292,0.0,-999.0,94,-99.99,,,0.08,Acu-Link.com,2013-07-22 23:58:00,
2013-07-22 20:13:00,72.7,71.2,29.69,SW,225,0.0,-999.0,95,-99.99,,,0.08,Acu-Link.com,2013-07-23 00:13:00,
2013-07-22 20:29:00,72.5,71.0,29.69,NE,45,0.0,-999.0,95,-99.99,,,0.08,Acu-Link.com,2013-07-23 00:29:00,
2013-07-22 20:44:00,72.5,71.0,29.69,NNW,337,1.7,-999.0,95,-99.99,,,0.08,Acu-Link.com,2013-07-23 00:44:00,
2013-07-22 20:59:00,72.3,70.8,29.69,SE,135,0.0,-999.0,95,-99.99,,,0.08,Acu-Link.com,2013-07-23 00:59:00,
2013-07-22 21:15:00,72.3,70.8,29.70,SW,225,0.0,-999.0,95,-99.99,,,0.08,Acu-Link.com,2013-07-23 01:15:00,
2013-07-22 21:30:00,72.1,70.3,29.69,SW,225,1.7,-999.0,94,-99.99,,,0.09,Acu-Link.com,2013-07-23 01:30:00,
2013-07-22 21:45:00,71.6,69.8,29.69,East,90,2.7,-999.0,94,-99.99,,,0.56,Acu-Link.com,2013-07-23 01:45:00,
2013-07-22 22:02:00,71.4,69.9,29.69,West,270,0.0,-999.0,95,-99.99,,,0.74,Acu-Link.com,2013-07-23 02:02:00,
2013-07-22 22:17:00,71.2,69.7,29.69,South,180,1.7,-999.0,95,-99.99,,,0.80,Acu-Link.com,2013-07-23 02:17:00,
2013-07-22 22:33:00,71.1,69.6,29.70,NW,315,0.0,-999.0,95,-99.99,,,0.85,Acu-Link.com,2013-07-23 02:33:00,
2013-07-22 22:48:00,71.1,69.6,29.69,West,270,0.0,-999.0,95,-99.99,,,0.86,Acu-Link.com,2013-07-23 02:48:00,
2013-07-22 23:03:00,70.9,69.4,29.68,NNE,22,0.0,-999.0,95,-99.99,,,0.86,Acu-Link.com,2013-07-23 03:03:00,
2013-07-22 23:19:00,70.9,69.4,29.69,East,90,2.2,-999.0,95,-99.99,,,0.86,Acu-Link.com,2013-07-23 03:19:00,
2013-07-22 23:34:00,71.1,69.6,29.67,West,270,0.0,-999.0,95,-99.99,,,0.86,Acu-Link.com,2013-07-23 03:34:00,
2013-07-22 23:49:00,71.1,69.6,29.66,South,180,0.0,-999.0,95,-99.99,,,0.88,Acu-Link.com,2013-07-23 03:49:00,